VK5ARG-5 Weather Reports


time (UTC)temp
F
wind
direction
speed
knots
gust
knots
rain 1hr
in
rain 24hr
in
rain mn
in
humidity
%
barometer
mb
20260503220523 51 290 16.5 23.5 0.02 0.04 0.04 99
20260503215528 51 297 17.4 24.3 0.02 0.03 0.03 99
20260503214525 51 297 17.4 22.6 0.02 0.02 0.02 99
20260503213542 51 297 16.5 20.9 0.01 0.02 0.02 99
20260503212526 51 294 14.8 20.9 0.01 0.02 0.02 99
20260503211522 51 295 13.9 17.4 0.01 0.02 0.02 99
20260503210527 51 290 14.8 20.9 0.01 0.01 0.01 99
20260503205523 51 291 15.6 21.7 0.00 0.01 0.01 99
20260503204528 51 293 16.5 22.6 0.00 0.01 0.01 99
20260503203546 51 292 17.4 22.6 0.00 0.01 0.01 99
20260503202542 51 295 17.4 24.3 0.00 0.00 0.00 99
20260503201526 51 294 17.4 24.3 0.00 0.00 0.00 98
20260503200522 51 293 15.6 20.9 0.00 0.00 0.00 98
20260503195527 51 291 15.6 20.9 0.00 0.00 0.00 98
20260503194525 51 290 14.8 20.0 0.00 0.00 0.00 98
20260503193528 50 292 15.6 20.9 0.00 0.00 0.00 98
20260503192525 51 289 13.9 18.2 0.00 0.00 0.00 97
20260503191521 51 288 17.4 23.5 0.00 0.00 0.00 97
20260503190546 51 290 14.8 20.9 0.00 0.00 0.00 97
20260503185523 51 288 16.5 20.9 0.00 0.00 0.00 97
20260503184527 51 289 16.5 24.3 0.00 0.00 0.00 97
20260503183524 51 292 18.2 26.1 0.00 0.00 0.00 96
20260503182528 51 293 18.2 23.5 0.00 0.00 0.00 95
20260503181525 51 291 16.5 23.5 0.00 0.00 0.00 94
20260503180521 51 294 16.5 20.0 0.00 0.00 0.00 94
20260503175526 51 295 16.5 21.7 0.00 0.00 0.00 94
20260503174522 51 297 16.5 22.6 0.00 0.00 0.00 94
20260503173526 51 298 17.4 23.5 0.00 0.00 0.00 95
20260503172544 51 295 15.6 20.0 0.00 0.00 0.00 94
20260503171528 51 294 13.0 17.4 0.00 0.00 0.00 94
20260503170546 51 300 14.8 20.9 0.00 0.00 0.00 94
20260503150523 51 295 15.6 21.7 0.00 0.00 0.00 90
20260503130522 51 290 12.2 20.0 0.00 0.00 0.00 87
20260503110520 52 293 8.7 12.2 0.00 0.00 0.00 89
20260503081527 55 286 12.2 18.2 0.00 0.01 0.00 83
20260503080523 55 295 13.9 20.0 0.00 0.01 0.00 79
20260503072526 57 290 16.5 24.3 0.00 0.02 0.00 72
20260503071522 58 290 19.1 24.3 0.00 0.02 0.00 71
20260503070526 57 297 19.1 23.5 0.00 0.02 0.00 72
20260503054523 59 294 20.9 27.8 0.00 0.03 0.00 63
20260503053528 60 291 21.7 31.3 0.00 0.03 0.00 62
20260503052525 60 286 23.5 30.4 0.00 0.03 0.00 61
20260503051542 60 287 20.0 26.9 0.00 0.03 0.00 61
20260503050547 60 286 20.0 27.8 0.00 0.03 0.00 61
20260503045522 59 279 22.6 30.4 0.00 0.03 0.00 60
20260503044527 59 282 26.9 33.9 0.00 0.04 0.00 60
20260503043523 59 281 23.5 29.5 0.00 0.04 0.00 61
20260503042528 58 294 17.4 27.8 0.00 0.05 0.00 68
20260503041525 58 296 19.1 26.1 0.00 0.06 0.00 70
20260503040521 59 294 20.9 27.8 0.00 0.06 0.00 66
20260503035526 59 290 21.7 30.4 0.00 0.07 0.00 66
20260503034522 59 289 23.5 31.3 0.00 0.07 0.00 64
20260503033527 58 286 28.7 37.4 0.00 0.07 0.00 65
20260503032522 58 285 26.1 34.8 0.00 0.08 0.00 64
20260503031550 59 288 23.5 31.3 0.00 0.09 0.00 64
20260503030546 58 284 30.4 40.0 0.00 0.10 0.00 64
20260503025520 58 285 24.3 33.0 0.00 0.10 0.00 64
20260503024547 57 288 24.3 34.8 0.00 0.10 0.00 66
20260503023543 58 285 26.9 35.6 0.00 0.10 0.00 65
20260503022527 59 283 28.7 40.0 0.00 0.10 0.00 62
20260503021524 59 283 26.9 34.8 0.00 0.10 0.00 64
20260503020529 58 289 27.8 36.5 0.00 0.10 0.00 65
20260503015606 59 287 24.3 34.8 0.00 0.10 0.00 66
20260503014520 58 289 24.3 33.0 0.00 0.10 0.00 66
20260503013547 57 288 26.9 35.6 0.00 0.10 0.00 66
20260503012522 57 292 25.2 33.9 0.00 0.10 0.00 69
20260503011527 56 292 21.7 29.5 0.00 0.10 0.00 78
20260503010523 55 297 20.0 28.7 0.00 0.10 0.00 83
20260503005550 55 297 20.0 26.9 0.00 0.10 0.00 81
20260503004545 55 299 20.0 26.9 0.00 0.10 0.00 82
20260503003520 54 298 20.9 29.5 0.00 0.10 0.00 82
20260503002547 54 305 21.7 27.8 0.00 0.10 0.00 82
20260503001522 54 308 21.7 27.8 0.00 0.10 0.00 84
20260503000528 54 308 20.0 29.5 0.00 0.10 0.00 83
20260502235523 53 312 20.0 26.1 0.00 0.10 0.10 85
20260502234549 53 311 20.0 26.9 0.00 0.10 0.10 87
20260502233546 53 311 16.5 22.6 0.00 0.10 0.10 88
20260502232542 52 309 18.2 24.3 0.00 0.10 0.10 89
20260502231526 51 315 15.6 22.6 0.00 0.10 0.10 90
20260502230522 51 312 15.6 21.7 0.00 0.10 0.10 90
20260502225526 51 313 17.4 22.6 0.00 0.10 0.10 90
20260502224523 50 310 16.5 21.7 0.00 0.10 0.10 91
20260502223549 50 307 17.4 23.5 0.00 0.10 0.10 91
20260502222525 50 303 17.4 23.5 0.00 0.10 0.10 91
20260502221520 50 306 20.9 27.8 0.00 0.10 0.10 92